GFSFLT2_850_spd_093.txt.gz
Wind_Speed
19 18 17 15 13 13 14 15 16 17 17 19 19 21 25 24 24 23 22 22 21 20 17 15 16 18 17 18 22 17 14 13
21 19 18 15 14 14 15 16 17 18 18 19 18 21 24 25 25 25 25 24 22 20 17 17 17 18 18 20 22 14 15 13
22 22 20 17 15 15 16 18 19 20 20 20 21 22 25 26 27 27 25 22 19 16 14 17 17 20 21 20 21 13 12 14
23 24 22 19 15 15 16 18 22 23 24 24 24 24 24 26 28 25 26 24 23 17 13 17 17 22 22 19 17 15 15 12
27 25 24 22 18 15 13 16 16 19 21 21 23 21 25 27 30 31 29 27 21 20 21 20 21 25 25 22 19 19 15 14
29 28 24 26 20 20 16 16 17 20 22 23 21 27 27 28 29 33 32 29 26 25 21 24 23 24 25 23 23 20 11 13
27 29 28 27 27 24 21 22 20 18 21 25 24 25 27 27 26 29 34 32 27 25 30 40 27 24 24 22 22 16 15 10
28 30 31 27 29 29 25 23 25 23 22 23 27 26 27 31 32 33 30 28 24 27 29 36 30 26 25 21 17 18 13 12
29 29 31 33 32 31 28 26 26 27 25 25 26 28 28 31 31 34 35 29 23 27 33 40 36 27 22 21 18 15 15 16
27 28 36 34 35 34 31 29 28 27 27 27 30 31 30 31 35 38 32 30 24 24 28 30 30 28 26 22 17 16 16 16
26 29 36 31 36 34 34 31 29 30 27 28 28 33 34 32 31 35 34 28 24 30 33 33 29 23 24 21 17 17 18 17
25 28 35 32 34 36 36 34 32 32 32 31 29 32 31 31 32 37 37 30 29 33 34 32 28 25 24 22 18 16 16 16
25 27 31 31 37 38 39 38 34 32 34 32 31 32 32 33 32 35 26 28 31 33 36 33 30 26 26 22 19 19 17 16
25 26 28 33 35 36 26 28 27 32 32 31 31 32 31 31 32 38 37 38 35 40 42 37 32 29 32 24 16 18 20 16
26 25 28 34 29 25 23 24 28 27 27 25 27 29 30 30 33 36 38 38 38 41 40 40 36 30 33 29 19 11 19 18
25 25 28 32 27 25 28 32 28 26 24 25 26 26 26 29 31 37 40 37 37 36 43 44 37 37 31 26 20 16 23 13
24 24 28 23 28 28 28 22 17 15 19 22 22 25 27 31 33 37 37 33 38 37 51 45 39 37 35 30 23 15 22 17
22 24 26 25 28 28 25 21 18 17 18 18 20 24 26 28 33 35 31 35 39 40 50 46 40 35 33 31 26 21 18 17
22 22 26 26 27 26 22 18 17 18 15 20 23 25 25 29 38 41 35 33 34 41 47 42 39 38 34 33 26 23 18 16
19 23 26 26 25 22 19 17 16 14 17 16 17 20 22 27 31 37 40 36 42 42 41 41 39 36 36 33 34 28 24 17

GFSFLT2_850_spd_096.txt.gz
Wind_Speed
20 19 16 15 13 11 10 9 10 12 13 12 14 15 17 18 19 19 18 18 19 18 16 14 13 17 16 18 19 14 13 14
20 21 19 17 15 13 12 12 11 13 13 13 12 15 18 19 19 20 19 20 19 16 14 13 13 16 18 20 20 14 14 14
25 21 21 19 17 14 13 14 14 15 16 16 16 16 18 19 20 21 20 19 16 17 13 10 12 15 17 21 21 15 14 17
26 23 23 20 18 16 15 15 16 18 19 19 18 20 21 22 22 22 24 23 24 21 19 11 10 15 19 22 17 17 16 11
27 24 25 22 18 18 15 16 18 20 21 21 22 21 22 20 24 27 25 26 28 26 19 12 15 18 21 22 20 19 15 13
26 27 26 26 23 22 16 14 12 16 20 20 19 22 21 23 28 28 31 31 29 29 17 13 18 22 23 26 21 22 18 16
33 29 27 27 27 24 20 16 16 15 17 21 23 21 25 24 27 29 32 33 30 31 28 23 18 25 26 26 23 20 15 15
38 32 31 30 30 30 27 26 22 17 17 21 23 25 25 25 27 28 29 32 32 31 24 25 23 31 28 28 23 26 18 18
31 35 33 30 31 32 30 29 30 28 24 21 22 25 26 24 27 30 29 27 30 29 23 23 29 28 28 26 26 20 16 17
29 31 33 30 30 34 31 29 28 28 29 24 22 24 27 27 27 29 30 30 30 26 22 21 26 31 30 28 27 23 23 14
33 31 32 34 30 35 33 31 30 28 27 28 27 26 27 29 30 29 28 26 28 27 20 21 43 36 31 28 26 23 24 19
34 34 32 33 30 31 32 30 31 29 28 27 27 28 27 30 30 28 29 32 28 28 20 24 36 36 34 31 25 24 20 22
35 35 34 34 36 35 37 36 34 32 32 29 27 26 24 28 30 29 30 30 34 30 24 30 33 33 26 27 23 21 22 21
27 30 32 31 36 35 38 36 34 32 34 30 30 29 27 29 31 30 28 28 42 31 28 35 36 34 33 31 23 27 24 21
29 26 24 27 36 30 32 29 27 30 35 33 30 30 30 30 30 32 32 34 27 28 29 30 42 39 38 35 24 17 27 24
32 26 25 29 37 31 30 32 34 35 32 29 29 27 27 28 30 31 31 33 32 34 30 30 42 41 34 34 31 30 34 21
34 30 28 33 37 30 28 33 34 27 27 28 25 25 25 26 31 30 32 35 34 33 39 36 46 43 39 32 28 25 33 28
33 32 29 35 35 29 29 36 30 19 19 20 22 22 25 27 28 28 31 34 36 34 34 38 49 45 38 35 38 26 32 24
33 32 27 30 30 29 27 29 21 20 20 18 20 22 23 27 28 31 33 39 37 36 37 37 49 47 41 40 36 29 21 26
26 24 26 26 23 29 30 25 23 24 24 20 25 24 24 25 25 32 31 37 32 35 31 41 49 47 42 40 35 34 23 24

GFSFLT2_850_spd_102.txt.gz
Wind_Speed
26 24 22 19 17 14 13 12 14 15 16 17 18 18 17 16 15 16 16 14 15 17 16 17 15 16 16 17 15 13 14 15
26 25 23 22 20 18 15 14 14 15 16 18 19 19 19 18 16 17 16 15 16 16 17 17 17 17 17 16 14 15 16 18
26 26 25 24 22 20 18 16 16 15 17 19 20 20 20 20 18 18 17 17 17 19 20 21 21 19 18 15 14 16 17 17
26 26 26 26 26 24 21 19 18 19 18 19 20 21 21 21 20 19 18 19 19 21 21 21 23 23 21 17 15 17 18 20
27 28 26 28 29 27 25 23 21 21 19 19 21 21 22 22 22 22 22 23 22 23 24 25 25 24 23 22 25 20 20 22
28 29 28 28 31 30 29 27 24 22 22 20 22 22 23 24 24 24 26 26 25 27 26 27 24 23 20 16 20 23 23 23
27 28 25 27 31 34 32 30 28 24 23 21 22 23 24 24 24 25 26 26 27 28 25 26 25 24 17 16 19 25 26 25
27 29 27 29 28 34 35 32 29 27 25 24 23 23 23 24 25 25 26 26 27 28 26 23 30 24 19 19 23 28 27 27
32 31 30 30 32 31 36 35 31 29 27 26 25 25 25 24 24 25 25 25 27 28 27 26 30 27 21 20 21 31 30 28
37 34 33 31 33 35 35 35 33 32 29 27 26 27 26 25 24 25 25 26 28 30 31 31 31 31 26 23 29 31 30 29
39 34 33 33 35 37 39 35 35 34 30 28 28 28 28 27 25 26 25 27 28 33 34 33 32 33 29 26 30 35 34 30
42 41 38 37 38 38 41 38 36 34 33 31 30 29 29 29 28 27 27 28 28 32 33 34 34 32 28 30 28 38 36 33
41 44 43 42 42 40 40 40 41 38 36 35 32 32 32 32 30 29 29 30 30 31 29 32 33 33 26 29 30 30 36 35
45 48 44 47 46 42 44 45 45 42 39 36 35 35 34 32 32 31 30 32 31 29 31 30 32 31 31 28 16 24 32 34
29 35 48 48 46 45 47 45 40 41 36 37 40 36 34 35 35 34 33 32 32 31 31 32 33 34 34 25 21 11 35 32
32 32 41 44 48 47 50 46 44 42 38 36 38 38 36 37 34 34 34 33 33 33 34 33 36 38 32 36 30 24 33 21
12 26 39 37 42 48 51 47 40 38 37 36 37 35 33 36 36 37 36 35 35 35 32 35 36 40 40 41 34 24 38 39
7 14 28 40 38 46 47 40 38 35 33 34 35 34 36 36 36 36 38 36 37 36 34 39 36 43 37 43 42 35 42 38
10 14 27 40 44 42 43 39 34 31 29 28 30 34 36 38 37 37 37 38 37 36 38 39 35 39 38 42 50 39 43 45
4 18 26 38 36 39 40 34 31 27 24 22 24 23 24 28 31 32 34 36 34 35 39 41 41 49 36 41 49 44 41 46

GFSFLT2_850_spd_105.txt.gz
Wind_Speed
31 29 26 23 20 18 17 17 16 18 20 20 20 19 18 17 16 15 14 14 14 15 16 16 16 15 14 13 11 12 13 13
32 29 27 24 22 19 17 16 17 17 20 20 20 20 19 19 17 16 15 15 15 15 16 17 16 16 16 14 12 11 12 12
32 31 29 26 23 20 18 17 17 17 20 21 21 22 22 21 19 18 18 16 17 18 18 19 18 18 17 15 13 12 13 12
33 31 30 28 26 23 21 19 20 20 21 23 23 23 23 22 21 20 19 19 19 19 20 21 21 20 19 16 14 12 12 14
33 31 29 28 27 26 25 23 21 21 22 23 24 24 25 24 24 24 23 23 22 22 22 22 24 22 23 22 17 14 13 17
31 30 29 28 28 28 28 27 25 24 24 25 25 27 27 27 27 27 26 26 25 24 26 26 26 24 25 24 21 19 18 22
32 33 31 30 29 28 30 30 29 27 26 26 26 28 28 27 29 29 28 27 27 26 26 23 28 28 27 25 20 18 21 22
39 37 35 33 29 28 30 33 32 31 29 28 27 27 28 28 28 29 29 28 27 27 26 26 28 28 28 27 22 22 19 21
45 41 39 37 30 28 27 30 35 34 32 29 29 30 29 29 28 29 29 28 27 27 27 25 25 26 31 27 24 23 20 24
33 46 48 44 37 32 30 27 32 35 34 33 32 32 31 31 30 29 28 28 28 29 29 29 26 28 32 29 26 25 25 28
40 39 46 50 44 39 33 30 28 33 35 34 33 33 33 33 32 30 28 29 29 29 29 29 28 30 32 31 29 27 26 30
40 43 43 49 49 42 37 34 31 31 34 34 34 33 34 33 33 31 29 29 29 30 29 29 31 31 31 36 32 29 27 31
34 42 42 46 51 46 44 42 35 34 33 34 35 34 33 34 33 32 31 31 29 29 29 28 32 33 34 37 35 32 31 36
29 32 36 43 50 46 44 42 38 35 37 37 34 36 35 35 35 35 32 31 30 28 30 28 31 34 34 28 12 25 31 36
31 27 30 39 47 48 46 42 41 42 41 38 35 37 36 36 35 33 34 33 32 31 31 31 30 32 33 28 10 10 20 26
30 29 29 33 42 48 49 46 43 45 43 40 37 36 36 38 38 37 36 34 35 34 32 31 31 31 34 37 33 15 14 12
20 26 28 32 36 45 47 47 46 46 47 43 41 40 39 37 40 39 37 37 37 35 32 33 33 34 37 36 38 35 28 24
16 19 24 30 31 37 44 43 47 48 47 46 42 43 39 37 41 39 38 37 37 36 34 34 35 36 38 41 38 37 32 33
11 13 17 26 31 33 39 42 45 46 45 43 40 41 41 40 38 39 38 37 37 35 36 37 38 38 39 39 40 40 41 42
6 12 16 18 27 32 37 38 33 36 38 35 31 35 34 41 36 36 35 36 37 36 37 38 39 37 42 40 44 43 44 40

GFSFLT2_850_spd_108.txt.gz
Wind_Speed
31 29 27 24 22 21 21 21 21 20 19 20 20 19 19 19 18 16 14 14 13 15 15 15 14 13 11 11 11 12 12 12
33 30 28 27 25 23 22 22 21 20 20 20 20 20 20 20 19 18 17 16 15 15 17 16 15 13 13 12 11 12 11 11
33 32 29 27 25 23 22 22 21 21 21 20 21 22 22 22 21 20 20 18 17 16 17 17 17 14 13 12 12 11 12 12
34 32 31 29 28 25 24 23 23 23 22 22 23 24 23 23 22 21 21 20 18 18 18 19 19 17 15 15 13 13 13 12
33 33 32 31 29 28 26 25 25 23 23 23 23 24 25 25 24 24 23 23 21 21 21 22 21 20 19 18 17 15 12 12
32 32 31 31 29 29 27 27 26 25 24 24 24 26 27 28 28 26 25 26 24 24 24 23 23 22 21 20 19 14 15 16
30 33 34 33 32 31 30 29 28 26 26 25 26 27 28 29 30 28 27 27 25 25 25 25 25 25 24 23 23 20 20 17
27 33 35 35 35 33 32 31 30 30 29 28 27 27 28 30 31 31 29 28 27 26 25 26 25 27 26 26 27 23 20 17
30 33 37 39 38 36 34 32 33 35 33 31 29 28 29 30 31 33 31 30 28 27 26 25 26 26 28 29 29 26 23 24
28 34 37 41 44 40 36 35 34 34 35 34 32 29 30 30 32 33 32 31 30 29 28 27 27 26 26 29 29 30 28 27
32 31 39 39 41 45 42 37 34 33 33 35 35 33 32 32 33 33 33 32 31 31 29 28 28 26 26 26 29 31 29 27
30 30 36 41 42 45 47 43 38 36 35 35 34 35 34 33 34 35 34 33 32 32 31 29 29 26 26 27 30 30 31 30
31 31 31 37 46 51 48 52 46 40 38 36 36 34 34 36 35 36 35 35 33 30 31 30 31 29 25 32 33 32 36 34
29 29 29 33 46 52 51 48 51 43 44 42 37 34 35 35 35 36 36 36 34 32 31 32 32 30 30 29 22 30 35 36
29 30 30 29 32 43 48 44 48 46 47 42 39 39 33 33 34 35 35 37 35 34 31 32 33 32 30 27 11 14 21 28
27 27 29 29 31 36 46 48 48 53 43 42 43 40 35 33 34 35 36 35 34 35 34 33 31 32 29 33 34 25 11 12
23 28 28 30 34 37 42 50 48 45 45 49 45 43 39 35 34 35 32 35 38 37 36 34 33 33 32 32 32 34 32 13
16 24 26 33 35 37 40 46 47 49 47 46 45 45 41 35 36 36 31 37 39 37 35 34 35 34 35 37 37 30 35 36
3 13 20 25 32 35 40 41 44 45 48 44 45 46 41 39 38 36 36 34 39 38 37 37 36 35 36 38 37 36 38 35
10 2 9 17 20 26 31 34 38 42 41 40 39 42 43 38 33 37 36 31 37 36 36 35 36 37 38 38 39 38 38 36

GFSFLT2_850_spd_111.txt.gz
Wind_Speed
31 31 30 27 24 23 22 21 20 20 20 20 19 18 18 18 17 16 16 15 15 14 14 14 14 13 11 11 11 11 11 12
31 31 30 28 26 24 23 21 20 20 20 20 19 19 19 18 18 17 16 15 15 14 15 15 14 13 12 11 11 11 12 12
32 32 31 29 27 25 24 23 22 21 21 21 21 21 21 20 20 19 17 16 16 15 17 16 15 14 12 12 12 12 13 13
31 31 31 29 28 27 26 25 25 24 24 24 24 23 23 23 21 20 19 18 17 17 17 17 17 17 16 15 14 13 13 13
30 32 32 31 31 30 29 27 27 26 25 25 26 25 24 24 24 23 22 21 21 20 20 21 21 19 18 18 16 14 13 13
25 28 31 32 32 31 31 29 28 27 27 26 27 27 27 27 27 27 26 25 24 24 23 22 21 21 20 18 17 15 14 14
18 21 30 32 31 32 33 31 29 28 28 28 27 28 28 29 29 29 28 28 27 26 24 24 23 22 21 20 19 18 16 16
17 19 18 28 35 35 35 33 32 30 29 30 29 29 29 30 30 30 30 29 28 27 26 24 24 23 23 23 22 21 20 19
25 22 22 24 29 33 37 35 35 33 32 33 33 31 31 31 32 32 31 31 30 28 27 25 25 25 25 26 25 24 25 21
24 28 28 28 30 32 36 37 37 36 34 34 35 34 33 34 34 34 33 31 31 31 29 28 27 27 27 28 28 26 28 24
28 26 28 31 32 35 37 38 39 37 34 35 37 38 36 35 34 35 35 33 32 32 32 30 29 29 29 26 25 24 27 28
26 29 32 32 37 37 39 42 42 41 37 37 38 39 40 37 36 35 36 35 34 33 33 30 31 30 24 21 23 25 25 30
27 27 29 32 36 41 42 44 44 45 44 38 39 38 38 39 38 37 38 37 36 35 32 31 33 29 26 27 26 28 31 31
29 30 30 31 35 38 40 43 46 46 49 46 42 40 37 39 42 41 40 38 38 35 33 34 34 32 30 29 21 27 35 36
28 31 32 33 32 32 34 37 41 43 49 52 47 44 41 39 42 41 39 40 39 38 35 34 35 36 34 29 14 18 17 25
29 32 34 33 33 34 35 40 41 45 49 50 50 49 45 42 41 39 41 39 39 38 36 35 33 36 34 36 33 16 11 10
35 35 33 34 34 35 37 42 44 45 46 46 52 54 47 44 40 41 42 39 37 37 37 37 34 34 37 35 32 34 36 25
28 31 33 31 35 37 40 42 43 40 45 47 49 53 50 46 45 41 40 37 35 35 36 34 35 35 36 34 35 32 36 36
19 18 23 26 31 36 39 40 42 41 42 44 43 48 49 46 44 43 42 37 34 32 32 35 36 35 35 35 35 36 35 34
17 15 13 14 22 28 29 35 36 39 37 36 41 42 42 46 43 43 38 35 35 35 30 31 35 33 33 36 36 36 36 37

GFSFLT2_850_spd_114.txt.gz
Wind_Speed
25 30 30 27 24 22 21 20 19 18 19 19 19 18 18 17 16 16 15 14 13 13 13 12 12 12 11 10 10 10 10 8
24 31 31 29 27 24 22 21 20 19 19 19 19 19 18 18 17 17 15 14 14 14 13 13 13 12 11 10 10 11 9 9
27 29 31 30 26 27 24 22 21 21 20 21 20 21 21 20 20 18 16 15 14 13 13 13 13 13 12 11 11 10 9 9
29 30 31 32 24 24 27 26 25 24 24 24 24 20 19 19 21 20 18 16 15 14 13 14 15 15 15 14 12 10 11 11
25 30 30 31 26 26 24 23 23 26 26 25 25 22 22 22 19 22 21 20 19 17 17 18 17 13 13 14 12 12 11 11
14 22 29 31 32 31 31 26 30 29 29 27 24 27 23 22 20 19 20 20 18 20 18 18 17 16 15 15 15 13 12 13
11 16 22 28 32 33 33 33 26 32 32 32 30 30 31 27 22 21 20 20 21 20 19 21 20 19 17 16 16 14 14 12
12 13 18 22 29 33 34 35 32 33 34 34 34 31 29 32 27 23 23 23 22 22 20 20 20 18 19 19 16 16 16 15
14 16 17 21 24 29 35 37 37 35 35 35 35 35 32 33 33 28 25 24 25 26 23 21 20 21 20 19 17 18 18 17
16 18 21 23 25 27 30 34 37 39 38 36 35 35 36 34 35 35 31 28 29 26 27 25 21 22 20 21 21 19 18 18
20 22 24 25 25 27 29 31 32 31 36 36 35 36 37 36 33 37 37 37 33 29 26 29 24 25 22 22 21 21 20 20
25 24 24 25 26 25 25 27 29 30 29 32 36 38 39 38 29 32 37 39 37 37 32 29 26 27 21 19 18 18 19 19
22 26 23 21 21 27 28 32 32 33 34 37 38 40 37 38 36 36 37 39 41 39 38 34 31 28 23 23 22 23 22 22
20 21 22 20 18 22 29 30 31 35 36 38 39 38 38 38 39 39 41 41 42 41 42 40 36 35 33 25 19 21 27 27
22 23 22 23 23 21 25 29 31 32 36 40 40 43 44 42 42 42 42 42 42 43 42 42 41 39 34 20 11 16 12 16
25 27 28 26 25 23 25 32 36 38 33 39 47 50 49 49 46 44 40 41 42 43 43 43 41 41 37 35 26 14 12 9
26 28 31 30 26 25 26 31 37 34 33 32 39 50 55 55 50 47 42 40 41 43 43 43 42 42 41 36 29 27 25 25
27 29 32 32 35 32 29 32 36 37 35 34 35 45 54 55 54 50 45 42 42 42 42 41 42 42 39 28 26 28 27 27
27 27 30 29 32 34 36 32 37 40 37 36 32 39 44 52 54 52 48 45 41 39 38 41 40 40 38 34 27 28 27 23
27 27 28 26 26 28 33 40 33 41 38 34 34 37 40 43 52 53 49 44 38 36 35 37 38 36 36 38 30 31 28 27

GFSFLT2_850_spd_117.txt.gz
Wind_Speed
16 22 27 25 23 21 19 18 18 18 18 19 20 20 19 18 16 15 15 14 13 13 12 11 10 9 9 8 9 10 10 5
16 18 27 27 25 23 21 20 19 19 18 18 19 20 20 19 18 16 16 15 14 13 13 12 11 10 10 9 9 11 10 9
17 18 24 21 22 26 23 21 20 19 19 19 20 20 21 21 19 18 17 16 15 14 14 13 12 12 11 10 11 10 5 6
17 20 23 20 19 19 25 24 24 23 23 23 23 21 18 18 18 20 18 17 15 15 15 14 14 14 15 13 12 9 8 9
13 19 22 29 22 19 19 19 21 24 24 22 25 19 19 20 18 22 21 20 19 18 18 18 17 12 12 13 11 9 10 10
12 15 19 25 30 24 22 20 20 21 22 25 22 21 23 20 21 18 22 20 20 19 18 19 16 17 16 13 12 12 11 11
5 11 16 19 24 27 32 30 27 24 22 24 25 23 23 22 22 20 21 19 21 21 20 18 20 20 20 19 17 14 14 12
8 10 13 18 21 23 26 29 25 27 26 29 30 26 29 23 23 22 20 21 24 21 22 23 24 21 20 21 19 17 16 15
11 11 14 16 20 21 26 23 27 27 25 30 35 33 25 28 31 24 22 22 23 22 22 24 23 20 20 20 19 18 20 20
12 11 13 15 18 19 22 24 28 29 29 30 31 35 35 30 30 33 24 23 23 27 25 23 25 23 22 20 20 18 22 20
13 13 14 16 19 21 23 24 26 29 31 31 32 35 38 37 30 34 33 25 27 29 29 28 27 22 22 21 20 18 18 18
16 15 14 14 18 24 24 25 27 31 32 34 32 33 37 40 32 32 35 36 34 29 32 29 26 24 24 20 22 20 19 19
17 16 15 15 14 17 23 29 30 31 34 34 35 35 35 35 33 32 35 38 43 38 31 32 31 26 22 21 20 23 21 19
20 19 17 15 15 16 20 27 32 35 35 37 39 36 37 38 37 37 37 37 39 42 40 35 34 31 27 20 16 23 23 23
22 22 20 19 17 19 21 25 32 30 40 41 39 41 40 42 41 42 42 41 37 41 42 43 39 37 33 21 11 17 14 22
21 23 22 20 19 19 21 24 28 33 36 36 41 41 45 45 44 42 43 45 40 38 41 45 42 41 40 40 26 13 13 13
25 24 23 21 21 21 22 24 27 30 30 39 39 41 43 47 48 46 45 44 43 39 40 44 47 44 44 38 37 32 24 18
26 26 24 22 21 23 25 26 28 29 31 30 40 41 45 48 49 47 48 45 41 40 40 40 44 44 44 38 33 34 29 26
28 26 27 25 25 26 28 30 30 30 33 40 31 39 40 47 49 49 51 48 45 42 40 39 41 42 44 36 37 27 27 27
30 29 28 27 28 31 31 34 35 34 35 40 38 37 41 42 44 48 49 49 52 47 41 39 39 40 41 39 39 34 31 28

GFSFLT2_850_spd_120.txt.gz
Wind_Speed
11 13 18 23 21 19 17 16 16 16 16 15 15 15 15 15 13 13 12 11 11 10 9 9 8 7 7 7 9 10 5 7
14 16 17 26 24 22 20 18 17 17 16 17 16 16 17 16 15 14 14 13 13 12 11 10 10 9 8 8 8 13 9 3
16 17 15 25 25 24 23 21 19 18 18 18 18 19 20 19 18 16 15 15 14 13 13 12 12 11 11 10 9 12 5 5
13 18 16 19 24 27 25 24 23 22 21 20 20 21 21 21 20 19 18 17 16 15 14 14 14 14 13 13 11 12 7 11
15 14 19 22 21 23 24 28 27 27 26 24 23 22 18 18 17 19 20 20 19 18 18 17 16 15 14 15 11 13 9 9
13 13 14 22 26 23 25 25 30 30 29 27 27 26 23 21 20 20 21 23 22 21 21 19 18 14 11 11 8 14 10 11
9 12 11 14 23 25 20 21 23 24 27 28 28 27 26 27 22 23 20 20 20 22 20 20 20 19 16 18 14 13 13 13
10 12 11 15 19 23 29 27 23 23 23 24 28 27 27 29 26 26 23 19 19 20 21 20 18 20 21 21 20 18 17 16
12 10 14 14 15 20 26 28 31 24 29 25 26 30 27 28 26 30 26 21 23 22 22 23 20 23 26 24 21 22 22 20
7 6 7 9 14 16 21 26 27 30 26 30 36 34 34 34 33 31 28 24 27 27 24 26 24 25 23 23 23 21 21 24
13 12 11 15 16 17 19 23 25 29 35 30 34 35 38 34 33 37 35 29 30 29 27 30 27 27 25 22 22 23 23 21
19 17 17 18 19 20 24 22 27 30 31 38 32 37 35 46 35 37 39 36 33 31 32 30 30 26 26 25 27 24 22 23
21 22 20 19 18 16 14 18 26 29 32 32 39 35 39 36 48 39 40 45 42 34 37 33 34 29 24 27 24 26 27 25
24 23 23 22 19 19 24 27 27 23 32 37 38 39 40 39 39 47 47 44 46 40 39 37 36 33 32 26 20 24 29 28
23 24 24 24 23 24 25 33 33 32 29 28 40 40 40 42 43 42 47 48 45 49 49 44 38 37 38 27 13 17 20 30
23 24 26 26 24 23 22 25 30 32 29 31 30 40 42 44 46 45 43 45 46 44 44 45 43 40 39 41 32 11 16 11
24 26 28 27 24 25 25 28 32 34 38 35 32 27 44 46 46 47 47 46 47 51 45 41 44 44 44 43 41 38 23 16
28 28 27 28 29 29 29 28 32 35 38 43 41 31 31 48 47 49 48 51 50 39 41 41 42 43 42 41 44 41 44 36
31 31 32 31 29 30 33 33 32 34 36 38 42 46 32 40 46 51 53 55 51 46 48 47 42 43 45 43 42 41 36 32
34 33 33 33 29 29 32 34 35 35 37 39 42 43 45 37 45 47 53 55 50 52 52 48 43 43 43 43 43 42 37 36

GFSFLT2_850_spd_123.txt.gz
Wind_Speed
7 9 10 17 21 20 19 17 17 16 16 16 15 14 13 13 12 11 10 9 9 9 8 8 8 7 8 11 12 14 8 6
13 14 15 16 23 23 21 19 18 18 18 18 18 16 15 14 14 12 11 10 11 11 10 9 9 8 8 11 13 14 11 6
18 15 14 14 24 25 24 22 21 21 22 21 21 20 19 18 16 14 13 13 13 12 12 11 10 10 10 11 12 13 10 6
13 15 13 16 22 26 25 24 24 24 24 24 24 23 22 21 19 18 16 16 15 14 14 13 12 12 11 11 11 15 11 6
9 11 11 15 17 25 27 28 27 27 26 25 24 24 24 24 23 22 21 20 20 18 17 15 14 13 13 12 11 16 11 7
12 11 11 10 20 21 22 26 29 28 28 27 26 27 27 26 27 26 25 24 22 21 19 17 15 15 13 11 11 13 15 8
10 15 18 15 10 25 23 26 28 29 30 30 29 29 29 28 26 27 25 24 25 24 21 20 18 17 17 15 11 11 15 10
4 3 3 9 12 17 27 26 25 25 29 32 32 31 32 31 29 27 25 24 21 25 23 21 19 20 20 17 16 12 17 15
6 6 5 6 5 10 12 24 32 30 31 27 28 32 34 34 33 30 28 25 21 21 22 21 20 18 22 20 19 19 19 19
7 7 7 10 9 8 9 17 22 30 35 30 33 30 31 34 35 33 31 31 27 23 23 22 23 21 21 24 23 24 21 24
12 14 14 16 17 16 18 18 18 22 28 36 36 37 33 34 35 34 36 33 30 29 28 27 25 25 25 24 22 27 24 23
17 21 25 25 27 27 26 26 24 19 24 30 35 37 35 40 36 35 35 38 35 35 33 33 29 28 27 26 27 24 25 25
21 25 28 30 32 32 31 34 31 26 22 27 32 33 39 43 37 38 41 45 41 38 36 35 35 31 25 27 26 28 30 29
21 23 27 28 29 33 31 33 36 35 31 25 32 35 38 41 37 44 47 48 50 43 42 42 39 37 34 27 24 28 32 32
25 25 27 30 31 34 37 36 37 40 39 36 28 23 34 41 45 52 45 53 50 56 48 46 46 43 41 28 16 17 30 34
29 31 30 30 33 34 34 35 37 37 39 44 40 31 22 36 46 48 51 54 59 55 58 54 50 48 46 45 34 17 18 13
34 33 33 33 32 33 36 37 40 41 42 43 47 44 36 26 33 48 49 50 53 55 53 63 56 53 52 51 48 33 23 21
33 34 34 33 33 33 33 35 40 44 44 43 44 48 48 40 26 31 47 49 48 49 56 59 60 50 48 49 51 49 41 32
33 33 35 35 34 32 32 34 36 41 45 45 42 43 47 50 42 30 36 47 51 52 53 51 42 46 44 45 50 51 48 44
33 32 34 34 32 31 30 31 33 34 37 40 41 40 43 46 46 44 35 37 45 47 50 48 41 43 57 43 48 43 45 47